Location: Newark
(44.3681°N, 100.3364°W)
Time: 21:33:05
(UTC+00:00)

Vanguard 1 - Pass Details

Date: 23 February 2020
Orbit: 649 x 3833 km, 34.2° (Epoch: 09 April)

Event Time Altitude Azimuth Distance (km) Brightness Sun altitude
Rises 12:45:19 0° 212° (SSW) 7,819 14.4 -8.6°
Reaches altitude 10° 12:51:22 10° 204° (SSW) 6,912 14.2 -7.5°
Maximum altitude 13:10:47 36° 149° (SSE) 4,712 14.0 -4.1°
Drops below altitude 10° 13:25:46 10° 91° (E) 5,426 15.8 -1.4°
Sets 13:29:42 0° 83° (E) 6,044 15.8 -0.8°
